Change the Weather History Date:

Thursday, July 4, 2013

  Actual Average Record
Temperature  
Mean Temperature 80 °F -  
Max Temperature 84 °F 86 °F 90 °F (1978)
Min Temperature 77 °F 71 °F 61 °F (2007)
Cooling Degree Days 16    
Growing Degree Days 30 (Base 50)    
Moisture  
Dew Point 74 °F    
Average Humidity 80    
Maximum Humidity 88    
Minimum Humidity 69    
Precipitation  
Precipitation 0.00 in - - ()
Sea Level Pressure  
Sea Level Pressure 30.29 in    
Wind  
Wind Speed 8 mph (SSE)    
Max Wind Speed 13 mph    
Max Gust Speed 18 mph    
Visibility 10 miles    
Events Rain    
Averages and records for this station are not official NWS values.
T = Trace of Precipitation, MM = Missing Value Source: NWS Daily Summary

Daily Weather History Graph

Daily Weather History Graph

Search for Another Location

Airport or City:

Trip Planner

Search our weather history database for the weather conditions in past years. The results will help you decide how hot, cold, wet, or windy it might be!

Date:

Astronomy

Jul. 04, 2013 Rise Set
Actual Time 5:58 AM EDT 8:23 PM EDT
Civil Twilight 5:29 AM EDT 8:52 PM EDT
Nautical Twilight 4:53 AM EDT 9:28 PM EDT
Astronomical Twilight 4:13 AM EDT 10:08 PM EDT
Moon 3:10 AM EDT (7/4) 5:28 PM EDT (7/4)
Length of Visible Light 15h 23m
Length of Day
14h 24m
Waning Crescent, 11% of the Moon is Illuminated
Jul 4
Waning Crescent
Jul 8
New
Jul 15
First Quarter
Jul 22
Full
Jul 29
Last Quarter

Hourly Weather History & Observations

Time (EDT) Temp. Heat Index Dew Point Humidity Pressure Visibility Wind Dir Wind Speed Gust Speed Precip Events Conditions
12:58 AM 79.0 °F - 75.0 °F 88% 30.30 in 10.0 mi SSE 9.2 mph - N/A   Clear
1:58 AM 78.1 °F - 73.9 °F 87% 30.29 in 10.0 mi South 6.9 mph - N/A   Clear
2:58 AM 78.1 °F - 73.9 °F 87% 30.27 in 10.0 mi South 6.9 mph - N/A   Clear
3:58 AM 79.0 °F - 75.0 °F 88% 30.27 in 10.0 mi SSE 8.1 mph - N/A   Mostly Cloudy
4:18 AM 78.8 °F - 73.4 °F 83% 30.27 in 10.0 mi South 4.6 mph - N/A   Scattered Clouds
4:58 AM 78.1 °F - 73.9 °F 87% 30.28 in 10.0 mi SSE 4.6 mph - N/A   Clear
5:58 AM 77.0 °F - 73.0 °F 88% 30.28 in 10.0 mi SSE 4.6 mph - N/A   Clear
6:58 AM 78.1 °F - 73.0 °F 84% 30.29 in 10.0 mi SE 4.6 mph - N/A   Clear
7:58 AM 80.1 °F 84.5 °F 73.9 °F 81% 30.30 in 10.0 mi SSE 8.1 mph - N/A   Clear
8:58 AM 81.0 °F 86.2 °F 73.9 °F 79% 30.32 in 10.0 mi SSE 8.1 mph - N/A   Mostly Cloudy
9:58 AM 82.0 °F 87.9 °F 73.9 °F 76% 30.31 in 10.0 mi SE 8.1 mph - N/A   Partly Cloudy
10:58 AM 84.0 °F 91.2 °F 73.9 °F 72% 30.31 in 10.0 mi SSE 9.2 mph - N/A   Clear
11:58 AM 82.9 °F 90.2 °F 75.0 °F 77% 30.31 in 10.0 mi SSE 10.4 mph - N/A   Mostly Cloudy
12:58 PM 84.0 °F 91.2 °F 73.9 °F 72% 30.31 in 10.0 mi SSE 12.7 mph - N/A   Partly Cloudy
1:39 PM 84.2 °F 90.9 °F 73.4 °F 70% 30.30 in 10.0 mi SSE 10.4 mph - N/A   Mostly Cloudy
1:58 PM 82.9 °F 89.4 °F 73.9 °F 74% 30.30 in 10.0 mi SSE 9.2 mph - N/A   Scattered Clouds
2:58 PM 82.9 °F 89.4 °F 73.9 °F 74% 30.28 in 10.0 mi SE 11.5 mph - N/A   Scattered Clouds
3:58 PM 84.0 °F 90.2 °F 73.0 °F 69% 30.27 in 10.0 mi South 12.7 mph 18.4 mph N/A   Partly Cloudy
4:58 PM 82.9 °F 89.4 °F 73.9 °F 74% 30.26 in 10.0 mi South 9.2 mph - N/A   Partly Cloudy
5:58 PM 82.9 °F 88.8 °F 73.0 °F 72% 30.26 in 10.0 mi SSE 12.7 mph - N/A   Partly Cloudy
6:58 PM 82.0 °F 87.9 °F 73.9 °F 76% 30.27 in 10.0 mi SSE 11.5 mph - N/A   Partly Cloudy
7:58 PM 80.1 °F 84.5 °F 73.9 °F 81% 30.27 in 10.0 mi SSE 5.8 mph - N/A   Scattered Clouds
8:58 PM 80.1 °F 84.5 °F 73.9 °F 81% 30.27 in 10.0 mi SSE 9.2 mph - 0.00 in   Clear
9:58 PM 80.1 °F 85.1 °F 75.0 °F 85% 30.29 in 10.0 mi South 6.9 mph - N/A   Partly Cloudy
10:58 PM 79.0 °F - 75.0 °F 88% 30.29 in 10.0 mi South 6.9 mph - N/A   Scattered Clouds
11:58 PM 78.1 °F - 73.9 °F 87% 30.30 in 10.0 mi SSE 5.8 mph - 0.00 in Rain Light Rain